FW7386 Weather Reports


time (UTC)temp
C
wind
direction
speed
KPH
gust
KPH
rain 1hr
cm
rain 24hr
cm
rain mn
cm
humidity
%
barometer
mb
20260504050512 10 212 11.3 16.1 0.00 0.00 0.00 47 1009.8
20260504050012 10 208 8.0 14.5 0.00 0.00 0.00 47 1009.8
20260504045507 10 180 8.0 14.5 0.00 0.00 0.00 46 1009.9
20260504045011 10 167 8.0 12.9 0.00 0.00 0.00 47 1010.0
20260504044529 10 186 6.4 12.9 0.00 0.00 0.00 46 1009.9
20260504044007 10 169 8.0 12.9 0.00 0.00 0.00 46 1010.0
20260504043507 10 181 4.8 12.9 0.00 0.00 0.00 45 1010.0
20260504043007 10 176 4.8 11.3 0.00 0.00 0.00 44 1009.9
20260504042505 10 179 4.8 11.3 0.00 0.00 0.00 44 1009.8
20260504042008 10 163 6.4 11.3 0.00 0.00 0.00 43 1009.9
20260504041505 10 179 4.8 8.0 0.00 0.00 0.00 43 1009.9
20260504041002 11 178 4.8 6.4 0.00 0.00 0.00 43 1009.9
20260504040503 11 180 3.2 8.0 0.00 0.00 0.00 42 1009.9
20260504040038 11 189 4.8 8.0 0.00 0.00 0.00 43 1009.8
20260504035506 11 180 3.2 6.4 0.00 0.00 0.00 43 1009.9
20260504035005 11 177 3.2 8.0 0.00 0.00 0.00 42 1009.9
20260504034518 11 182 3.2 8.0 0.00 0.00 0.00 44 1009.9
20260504034008 11 181 1.6 3.2 0.00 0.00 0.00 43 1010.0
20260504033504 11 224 1.6 3.2 0.00 0.00 0.00 42 1010.0
20260504033017 11 224 0.0 3.2 0.00 0.00 0.00 43 1010.1
20260504032507 11 224 0.0 3.2 0.00 0.00 0.00 42 1010.2
20260504032005 11 224 0.0 4.8 0.00 0.00 0.00 43 1010.2
20260504031513 11 224 3.2 6.4 0.00 0.00 0.00 43 1010.2
20260504031005 11 189 3.2 9.7 0.00 0.00 0.00 43 1010.2
20260504030510 11 191 4.8 8.0 0.00 0.00 0.00 42 1010.2
20260504030010 11 210 4.8 9.7 0.00 0.00 0.00 42 1010.2
20260504025503 11 247 4.8 9.7 0.00 0.00 0.00 42 1010.2
20260504025009 11 267 3.2 8.0 0.00 0.00 0.00 41 1010.2
20260504024504 12 238 3.2 11.3 0.00 0.00 0.00 41 1010.3
20260504024006 12 264 3.2 14.5 0.00 0.00 0.00 41 1010.3
20260504023509 12 249 0.0 14.5 0.00 0.00 0.00 41 1010.4
20260504023024 12 226 4.8 16.1 0.00 0.00 0.00 41 1010.4
20260504022504 12 250 8.0 17.7 0.00 0.00 0.00 40 1010.4
20260504022005 12 225 6.4 17.7 0.00 0.00 0.00 40 1010.4
20260504021523 12 299 4.8 17.7 0.00 0.00 0.00 40 1010.4
20260504021003 11 256 8.0 17.7 0.00 0.00 0.00 40 1010.5
20260504020505 11 245 1.6 14.5 0.00 0.00 0.00 41 1010.5
20260504020019 11 221 3.2 14.5 0.00 0.00 0.00 41 1010.5
20260504015508 11 229 3.2 9.7 0.00 0.00 0.00 41 1010.6
20260504015004 11 233 3.2 12.9 0.00 0.00 0.00 41 1010.5
20260504014523 11 235 6.4 16.1 0.00 0.00 0.00 41 1010.4
20260504014007 11 244 8.0 19.3 0.00 0.00 0.00 40 1010.4
20260504013503 11 228 12.9 19.3 0.00 0.00 0.00 41 1010.3
20260504013013 11 228 9.7 17.7 0.00 0.00 0.00 41 1010.4
20260504012509 11 248 6.4 17.7 0.00 0.00 0.00 42 1010.5
20260504012013 11 222 6.4 12.9 0.00 0.00 0.00 42 1010.5
20260504011509 11 263 4.8 27.4 0.00 0.00 0.00 42 1010.6
20260504011004 11 236 14.5 29.0 0.00 0.00 0.00 42 1010.7
20260504010507 12 309 12.9 29.0 0.00 0.00 0.00 40 1010.7
20260504010025 12 273 8.0 24.1 0.00 0.00 0.00 38 1010.6
20260504005505 12 239 11.3 29.0 0.00 0.00 0.00 38 1010.5
20260504005005 12 250 6.4 29.0 0.00 0.00 0.00 38 1010.4
20260504004538 12 250 12.9 27.4 0.00 0.00 0.00 38 1010.4
20260504004002 12 255 9.7 20.9 0.00 0.00 0.00 39 1010.4
20260504003510 12 332 8.0 24.1 0.00 0.00 0.00 41 1010.2
20260504003021 11 255 11.3 24.1 0.00 0.00 0.00 40 1010.2
20260504002508 11 215 6.4 22.5 0.00 0.00 0.00 41 1010.2
20260504002005 11 204 11.3 22.5 0.00 0.00 0.00 42 1010.2
20260504001517 11 224 8.0 35.4 0.00 0.00 0.00 42 1010.1
20260504001007 11 212 22.5 35.4 0.00 0.00 0.00 41 1010.0
20260504000504 11 272 3.2 20.9 0.00 0.00 0.00 41 1010.1
20260504000016 11 252 6.4 20.9 0.00 0.00 0.00 41 1010.2
20260503235507 12 220 6.4 16.1 0.00 0.00 0.00 41 1010.2
20260503235007 12 302 4.8 20.9 0.00 0.00 0.00 41 1010.1
20260503234513 12 269 8.0 20.9 0.00 0.00 0.00 42 1010.0
20260503234007 12 278 6.4 19.3 0.00 0.00 0.00 41 1010.0
20260503233510 12 337 9.7 35.4 0.00 0.00 0.00 41 1010.0
20260503233007 12 317 16.1 35.4 0.00 0.00 0.00 40 1010.0
20260503232504 12 281 9.7 29.0 0.00 0.00 0.00 39 1010.0
20260503232008 12 285 9.7 33.8 0.00 0.00 0.00 39 1009.8
20260503231528 12 248 17.7 33.8 0.00 0.00 0.00 38 1009.8
20260503231004 12 259 12.9 30.6 0.00 0.00 0.00 38 1009.6
20260503230508 12 281 8.0 14.5 0.00 0.00 0.00 39 1009.6
20260503230025 12 257 8.0 12.9 0.00 0.00 0.00 39 1009.4
20260503225504 12 233 3.2 14.5 0.00 0.00 0.00 40 1009.4
20260503225007 12 236 8.0 16.1 0.00 0.00 0.00 38 1009.3
20260503224524 12 244 8.0 14.5 0.00 0.00 0.00 38 1009.3
20260503224011 13 247 11.3 16.1 0.00 0.00 0.00 38 1009.3
20260503223505 12 231 4.8 16.1 0.00 0.00 0.00 39 1009.3
20260503223021 12 266 8.0 14.5 0.00 0.00 0.00 38 1009.4
20260503222508 12 207 4.8 12.9 0.00 0.00 0.00 39 1009.4
20260503222011 12 279 6.4 17.7 0.00 0.00 0.00 39 1009.5
20260503221519 12 293 11.3 17.7 0.00 0.00 0.00 38 1009.5
20260503221009 12 245 4.8 12.9 0.00 0.00 0.00 39 1009.5
20260503220519 12 264 6.4 24.1 0.00 0.00 0.00 39 1009.6
20260503220012 12 284 8.0 24.1 0.00 0.00 0.00 38 1009.6
20260503215507 12 205 4.8 12.9 0.00 0.00 0.00 39 1009.7
20260503215009 12 255 3.2 16.1 0.00 0.00 0.00 39 1009.6
20260503214528 12 330 4.8 16.1 0.00 0.00 0.00 39 1009.6
20260503214004 12 216 6.4 16.1 0.00 0.00 0.00 41 1009.7
20260503213511 12 304 4.8 16.1 0.00 0.00 0.00 39 1009.6
20260503213027 12 259 8.0 16.1 0.00 0.00 0.00 39 1009.6
20260503212503 12 212 3.2 16.1 0.00 0.00 0.00 40 1009.6
20260503212011 12 323 6.4 19.3 0.00 0.00 0.00 39 1009.7
20260503211527 12 248 8.0 19.3 0.00 0.00 0.00 39 1009.7
20260503211011 12 274 8.0 16.1 0.00 0.00 0.00 39 1009.7
20260503210504 12 316 3.2 16.1 0.00 0.00 0.00 39 1009.7
20260503210025 12 278 4.8 17.7 0.00 0.00 0.00 38 1009.8
20260503205510 12 258 8.0 19.3 0.00 0.00 0.00 38 1009.8
20260503205007 12 322 8.0 20.9 0.00 0.00 0.00 39 1009.9
20260503204526 12 318 11.3 20.9 0.00 0.00 0.00 39 1010.0
20260503204012 12 283 4.8 16.1 0.00 0.00 0.00 40 1010.0
20260503203513 11 266 6.4 24.1 0.00 0.00 0.00 40 1010.1
20260503203018 11 239 11.3 24.1 0.00 0.00 0.00 40 1010.1
20260503202507 11 306 11.3 24.1 0.00 0.00 0.00 39 1010.2
20260503202014 11 291 8.0 38.6 0.00 0.00 0.00 40 1010.2
20260503201511 11 259 9.7 38.6 0.00 0.00 0.00 40 1010.2
20260503201007 11 293 11.3 24.1 0.00 0.00 0.00 40 1010.3
20260503200511 11 352 6.4 22.5 0.00 0.00 0.00 40 1010.3
20260503200028 11 233 11.3 24.1 0.00 0.00 0.00 39 1010.4
20260503195507 11 265 6.4 24.1 0.00 0.00 0.00 39 1010.4
20260503195012 11 272 9.7 27.4 0.00 0.00 0.00 40 1010.4
20260503194526 11 226 12.9 27.4 0.00 0.00 0.00 39 1010.5
20260503194004 11 333 11.3 25.7 0.00 0.00 0.00 39 1010.4
20260503193510 11 349 12.9 25.7 0.00 0.00 0.00 39 1010.7
20260503193037 11 298 8.0 27.4 0.00 0.00 0.00 40 1010.7
20260503192510 11 275 11.3 27.4 0.00 0.00 0.00 40 1010.7
20260503192007 11 312 4.8 17.7 0.00 0.00 0.00 39 1010.7
20260503191522 11 347 8.0 25.7 0.00 0.00 0.00 39 1010.8
20260503191012 11 236 11.3 25.7 0.00 0.00 0.00 39 1010.8
20260503190503 11 280 11.3 24.1 0.00 0.00 0.00 39 1010.8
20260503190020 11 301 6.4 22.5 0.00 0.00 0.00 39 1010.9
20260503185509 11 328 8.0 16.1 0.00 0.00 0.00 38 1010.9
20260503185008 11 265 6.4 20.9 0.00 0.00 0.00 37 1010.9
20260503184523 11 227 8.0 20.9 0.00 0.00 0.00 38 1010.9
20260503184010 11 335 8.0 19.3 0.00 0.00 0.00 38 1010.9
20260503183503 11 332 4.8 19.3 0.00 0.00 0.00 37 1010.9
20260503183015 11 272 9.7 19.3 0.00 0.00 0.00 38 1011.0
20260503182507 11 283 6.4 17.7 0.00 0.00 0.00 36 1011.1
20260503182011 11 247 3.2 17.7 0.00 0.00 0.00 38 1011.2
20260503181509 11 225 1.6 12.9 0.00 0.00 0.00 43 1011.2
20260503181008 11 1 3.2 12.9 0.00 0.00 0.00 39 1011.2
20260503180508 11 38 4.8 19.3 0.00 0.00 0.00 40 1011.2
20260503180016 11 344 6.4 19.3 0.00 0.00 0.00 42 1011.2
20260503175504 10 347 4.8 11.3 0.00 0.00 0.00 40 1011.2
20260503175010 10 23 4.8 19.3 0.00 0.00 0.00 41 1011.4
20260503174530 10 59 4.8 19.3 0.00 0.00 0.00 39 1011.4
20260503174004 10 333 4.8 19.3 0.00 0.00 0.00 37 1011.4
20260503173504 11 17 9.7 19.3 0.00 0.00 0.00 37 1011.5
20260503173026 11 227 6.4 17.7 0.00 0.00 0.00 37 1011.5
20260503172504 11 323 3.2 22.5 0.00 0.00 0.00 37 1011.4
20260503172017 10 343 11.3 22.5 0.00 0.00 0.00 37 1011.6
20260503171524 10 350 8.0 24.1 0.00 0.00 0.00 40 1011.6
20260503171010 10 267 6.4 24.1 0.00 0.00 0.00 39 1011.6
20260503170505 10 338 8.0 24.1 0.00 0.00 0.00 39 1011.7
20260503151008 7 356 9.7 24.1 0.00 0.00 0.00 42 1013.3
20260503150511 7 304 9.7 20.9 0.00 0.00 0.00 41 1013.4
20260503131009 6 311 9.7 20.9 0.00 0.00 0.00 47 1013.4
20260503130509 6 309 8.0 17.7 0.00 0.00 0.00 47 1013.5
20260503110509 2 240 1.6 9.7 0.00 0.00 0.00 70 1013.1
20260503090509 2 289 4.8 11.3 0.00 0.00 0.00 70 1012.5
20260503081519 2 304 4.8 11.3 0.00 0.00 0.00 70 1012.4
20260503081006 2 338 3.2 11.3 0.00 0.00 0.00 70 1012.5
20260503080512 2 349 1.6 8.0 0.00 0.00 0.00 70 1012.5
20260503072504 2 250 4.8 8.0 0.00 0.00 0.00 70 1012.5
20260503072005 2 300 1.6 6.4 0.00 0.00 0.00 71 1012.5
20260503071533 2 333 1.6 6.4 0.00 0.00 0.00 71 1012.5
20260503071014 2 349 0.0 4.8 0.00 0.00 0.00 71 1012.5
20260503070508 2 339 0.0 4.8 0.00 0.00 0.00 70 1012.6